Fairbanks, AK

9:00 PM AKDT on October 22, 2019 (GMT -0800)
Fairbanks International

Weather History for PAFA - May, 2019

Change the Weather History Date:

Tuesday, May 14, 2019

  Actual Average Record
Temperature  
Mean Temperature 50 °F 49 °F  
Max Temperature 65 °F 60 °F 82 °F (2016)
Min Temperature 35 °F 37 °F 21 °F (1913)
Degree Days  
Heating Degree Days 15 16  
Month to date heating degree days 239 268  
Since 1 July heating degree days 11501 13292  
Cooling Degree Days 0 0  
Month to date cooling degree days 0 0  
Year to date cooling degree days 0 0  
Moisture  
Dew Point 32 °F    
Average Humidity 49    
Maximum Humidity 76    
Minimum Humidity 19    
Precipitation  
Precipitation 0.00 in 0.01 in 0.49 in (1940)
Month to date precipitation 0.22 0.23  
Year to date precipitation 2.70 1.79  
Snow  
Snow 0.00 in 0.00 in 0.20 in (1964)
Month to date snowfall T 0.6  
Since 1 July snowfall 57.5 64.7  
Snow Depth 0.00 in    
Sea Level Pressure  
Sea Level Pressure 29.83 in    
Wind  
Wind Speed 2 mph (SSE)    
Max Wind Speed 6 mph    
Max Gust Speed -    
Visibility 10 miles    
Events      
T = Trace of Precipitation, MM = Missing Value Source: NWS Daily Summary

Daily Weather History Graph

Daily Weather History Graph

Search for Another Location

Airport or City:

Astronomy

May. 14, 2019 Rise Set
Actual Time 4:32 AM AKDT 11:05 PM AKDT
Civil Twilight 2:39 AM AKDT 1:07 AM AKDT
Nautical Twilight Sun does not rise Sun does not rise
Astronomical Twilight Sun does not rise Sun does not rise
Moon 4:14 PM AKDT (5/14) 5:05 AM AKDT (5/14)
Length of Visible Light 22h 28m
Length of Day
18h 33m
Waxing Gibbous, 80% of the Moon is Illuminated
May 14
Waxing Gibbous
May 18
Full
May 26
Last Quarter
Jun 3
New
Jun 9
First Quarter

Hourly Weather History & Observations

Time (AKDT) Temp. Windchill Dew Point Humidity Pressure Visibility Wind Dir Wind Speed Gust Speed Precip Events Conditions
12:53 AM 41.0 °F - 28.0 °F 60% 29.81 in 10.0 mi Calm Calm - N/A   Mostly Cloudy
1:53 AM 43.0 °F 39.5 °F 30.9 °F 62% 29.82 in 10.0 mi SE 5.8 mph - N/A   Scattered Clouds
2:53 AM 39.9 °F - 30.0 °F 68% 29.83 in 10.0 mi Calm Calm - N/A   Scattered Clouds
3:53 AM 39.9 °F 37.8 °F 28.9 °F 65% 29.84 in 10.0 mi NNE 3.5 mph - N/A   Scattered Clouds
4:53 AM 37.0 °F - 30.0 °F 76% 29.85 in 10.0 mi Calm Calm - N/A   Mostly Cloudy
5:53 AM 37.9 °F 34.4 °F 30.9 °F 76% 29.86 in 10.0 mi NNE 4.6 mph - N/A   Mostly Cloudy
6:53 AM 41.0 °F - 32.0 °F 70% 29.86 in 10.0 mi Calm Calm - N/A   Mostly Cloudy
7:53 AM 42.1 °F - 30.9 °F 65% 29.86 in 10.0 mi Calm Calm - N/A   Mostly Cloudy
8:53 AM 43.0 °F - 30.9 °F 62% 29.87 in 10.0 mi Calm Calm - N/A   Overcast
9:53 AM 46.0 °F - 30.9 °F 56% 29.87 in 10.0 mi Calm Calm - N/A   Mostly Cloudy
10:53 AM 50.0 °F - 30.9 °F 48% 29.86 in 10.0 mi Calm Calm - N/A   Mostly Cloudy
11:53 AM 55.0 °F - 32.0 °F 42% 29.86 in 10.0 mi South 3.5 mph - N/A   Mostly Cloudy
12:53 PM 55.9 °F - 32.0 °F 40% 29.85 in 10.0 mi SSW 3.5 mph - N/A   Mostly Cloudy
1:53 PM 59.0 °F - 33.1 °F 38% 29.84 in 10.0 mi Calm Calm - N/A   Mostly Cloudy
2:53 PM 62.1 °F - 30.9 °F 31% 29.84 in 10.0 mi ENE 4.6 mph - N/A   Mostly Cloudy
3:53 PM 62.1 °F - 30.0 °F 30% 29.82 in 10.0 mi Calm Calm - N/A   Overcast
4:53 PM 63.0 °F - 30.9 °F 30% 29.82 in 10.0 mi Calm Calm - N/A   Mostly Cloudy
5:53 PM 63.0 °F - 30.9 °F 30% 29.81 in 10.0 mi Calm Calm - N/A   Mostly Cloudy
6:53 PM 64.9 °F - 32.0 °F 29% 29.80 in 10.0 mi Variable 3.5 mph - N/A   Mostly Cloudy
7:53 PM 63.0 °F - 33.1 °F 33% 29.80 in 10.0 mi SW 3.5 mph - N/A   Mostly Cloudy
8:53 PM 62.1 °F - 35.1 °F 37% 29.80 in 10.0 mi SSW 3.5 mph - N/A   Mostly Cloudy
9:53 PM 59.0 °F - 36.0 °F 42% 29.80 in 10.0 mi Calm Calm - N/A   Mostly Cloudy
10:53 PM 53.1 °F - 39.0 °F 59% 29.80 in 10.0 mi Calm Calm - N/A   Mostly Cloudy
11:53 PM 50.0 °F - 39.0 °F 66% 29.79 in 10.0 mi Calm Calm - N/A   Mostly Cloudy